Skip Page Navigation
NASA JPL Caltech
NASA Logo - Jet Propulsion Laboratory + View the NASA Portal
+ Center for Near-Earth Object Studies
JPL Home Earth Solar System Stars & Galaxies Technology
JPL Solar System Dynamics
BODIES ORBITS EPHEMERIDES TOOLS PHYSICAL DATA DISCOVERY FAQ SITE MAP
JPL Small-Body Database Browser
Search: [ help ]  
9633 Cotur (1993 UP8)
Classification: Main-belt Asteroid          SPK-ID: 2009633
Ephemeris | Orbit Diagram | Orbital Elements | Mission Design | Physical Parameters | Discovery Circumstances | Close-Approach Data ]

[ show orbit diagram ]
Orbital Elements at Epoch 2459000.5 (2020-May-31.0) TDB
Reference: JPL 34 (heliocentric ecliptic J2000)
 Element Value Uncertainty (1-sigma)   Units 
e .1281689294226349 3.1114e-08  
a 3.044778514885869 1.4145e-08 au
q 2.654532512303907 9.2689e-08 au
i 10.53117253324782 4.448e-06 deg
node 171.4719685865499 1.8693e-05 deg
peri 114.1716571005685 2.5626e-05 deg
M 98.34048217435416 1.8163e-05 deg
tp 2458470.395099462022
(2018-Dec-17.89509946)
9.712e-05 TDB
period 1940.581945239229
5.31
1.3523e-05
3.702e-08
d
yr
n .1855113621371038 1.2927e-09 deg/d
Q 3.435024517467832 1.5958e-08 au
  Orbit Determination Parameters
   # obs. used (total)      2346  
   data-arc span      13938 days (38.16 yr)  
   first obs. used      1982-09-19  
   last obs. used      2020-11-16  
   planetary ephem.      DE431  
   SB-pert. ephem.      SB431-N16  
   condition code      0  
   norm. resid. RMS      .47882  
   source      ORB  
   producer      Otto Matic  
   solution date      2020-Dec-18 02:39:23  

Additional Information
 Earth MOID = 1.66035 au 
 Jupiter MOID = 1.84862 au 
 T_jup = 3.201 
[ hide covariance matrix ]
Orbital Elements at Epoch 2457137.5 (2015-Apr-25.0) TDB
Reference: JPL 34 (heliocentric ecliptic J2000)
 Element Value Uncertainty (1-sigma)   Units 
e .1302606111665695 3.0931e-08  
q 2.646837050472699 9.2355e-08 au
tp 2456534.217390874902
(2013-Aug-29.71739087)
9.4597e-05 TDB
node 171.5529982225818 1.8657e-05 deg
peri 114.8259817964002 2.5476e-05 deg
i 10.54305221208266 4.4537e-06 deg
  Orbit Determination Parameters
   # obs. used (total)      2346  
   data-arc span      13938 days (38.16 yr)  
   first obs. used      1982-09-19  
   last obs. used      2020-11-16  
   planetary ephem.      DE431  
   SB-pert. ephem.      SB431-N16  
   condition code      0  
   norm. resid. RMS      .47882  
   source      ORB  
   producer      Otto Matic  
   solution date      2020-Dec-18 02:39:23  

Additional Information
 Jupiter MOID = 1.84862 au 
 T_jup = 3.201 
Orbit Covariance (6×6)
  e q tp node peri i
e 9.56697970066056E-16 -2.832394729180042E-15 4.771369797976014E-13 1.903708347333743E-15 6.856937118588565E-14 -1.60246098219721E-17
q -2.832394729180042E-15 8.529512696613712E-15 -1.427906902644238E-12 -5.474913313752149E-15 -1.982083564382699E-13 3.325699455653311E-16
tp 4.771369797976014E-13 -1.427906902644238E-12 8.94864792046867E-9 7.130653697165339E-12 1.652359680963372E-9 1.304718567381966E-12
node 1.903708347333743E-15 -5.474913313752149E-15 7.130653697165339E-12 3.480998424238126E-10 -3.404957155134279E-10 1.478208913805006E-11
peri 6.856937118588565E-14 -1.982083564382699E-13 1.652359680963372E-9 -3.404957155134279E-10 6.490274679336174E-10 -1.427504006367691E-11
i -1.60246098219721E-17 3.325699455653311E-16 1.304718567381966E-12 1.478208913805006E-11 -1.427504006367691E-11 1.98356024877575E-11

Ephemeris | Orbit Diagram | Orbital Elements | Mission Design | Physical Parameters | Discovery Circumstances | Close-Approach Data ]

Physical Parameter Table
Parameter Symbol Value Units Sigma Reference Notes
absolute magnitude H 12.4   n/a MPO452306  
diameter diameter 10.195 km 0.205 urn:nasa:pds:neowise_diameters_albedos::2.0[mainbelt] (http://adsabs.harvard.edu/abs/2011ApJ...741...68M)  
geometric albedo albedo 0.186   0.019 urn:nasa:pds:neowise_diameters_albedos::2.0[mainbelt] (http://adsabs.harvard.edu/abs/2011ApJ...741...68M)  

9633 Cotur (1993 UP8)          Discovered 1993-Oct-20 by Elst, E. W. at La Silla
Reference: 19981110/Numbers.arcLast Updated: 2004-04-19

[ hide close-approach data ]
Close-Approach Data   ...sorted by Date/Time (TDB)
Date/Time (TDB) Time Uncertainty
(days_HH:MM)
Body Nominal Distance (au) Minimum Distance (au) Maximum Distance (au) V-relative (km/s) V-infinity (km/s) JD (TDB) Time Uncertainty (minutes) Semi-major axis (km) Semi-minor axis (km) range-LOV angle (deg) N-sigma BP Orbit Ref. Reference Modified
1931-Jun-02 11:11 00:02 Jupiter 1.95502164314357 1.95502095379875 1.95502233248851 2.53055321205925 2.35312344643017 2426494.965949889 1.93687327313215 92.8290441542287 16.4079020082246 86.703067942667 1827385.80195671 T 34 CATAB v2.0f-lin.ifort 2020-Dec-18 02:39:28 2020-Dec-18 02:39
1940-Sep-11 10:16 00:02 Jupiter 1.87941293153148 1.879412446446 1.87941341661771 3.66877091612226 3.54379891941058 2429883.927960618 1.63173746276597 123.425785307635 16.8761486906251 -87.4594672357472 2616827.81953966 T 34 CATAB v2.0f-lin.ifort 2020-Dec-18 02:39:28 2020-Dec-18 02:39
1988-Dec-29 08:35 < 00:01 Jupiter 1.84948534812891 1.84948491027887 1.84948578597895 2.53917448992737 2.35190396563082 2447524.857956294 0.642742576269661 52.756560940948 16.7248612527368 78.7736477921154 2457740.24663138 T 34 CATAB v2.0f-lin.ifort 2020-Dec-18 02:39:28 2020-Dec-18 02:39
2037-May-10 06:28 < 00:01 Jupiter 1.88306013585362 1.88305967805686 1.88306059365038 1.95756887494249 1.71244049913502 2465188.769307581 0.590673338810799 48.1807475458217 13.9165609462558 67.029381165757 3456348.28622829 T 34 CATAB v2.0f-lin.ifort 2020-Dec-18 02:39:28 2020-Dec-18 02:39
2085-Sep-10 22:24 00:02 Jupiter 1.95042524850363 1.95042477265552 1.95042572435164 2.64514805265617 2.47553157705897 2482844.433218326 1.63910612265536 85.0993361957907 15.7055472919168 84.8123561717731 2178422.93728252 T 34 CATAB v2.0f-lin.ifort 2020-Dec-18 02:39:28 2020-Dec-18 02:39
2094-Dec-20 22:45 00:02 Jupiter 1.90447392638941 1.90447339155233 1.90447446122747 3.62135932586532 3.49638888596556 2486232.447687591 1.76067407293974 124.945773085195 17.0941715872407 -86.7664422950833 2537334.0812942 T 34 CATAB v2.0f-lin.ifort 2020-Dec-18 02:39:28 2020-Dec-18 02:39
2143-Apr-13 14:15 00:03 Jupiter 1.87075009440631 1.87074963495736 1.87075055385505 2.44429064995022 2.25144699669037 2503877.093466375 3.07005316210344 121.424290854501 15.8154306725859 67.419197379304 1658975.95807 T 34 CATAB v2.0f-lin.ifort 2020-Dec-18 02:39:28 2020-Dec-18 02:39
2191-Aug-24 06:41 00:04 Jupiter 1.88409515722252 1.88409465593518 1.88409565850985 2.00975115890578 1.77199618757536 2521541.778273116 4.30781839419358 63.5844375294894 35.4941295248271 -78.1775172921118 2220431.76097586 T 34 CATAB v2.0f-lin.ifort 2020-Dec-18 02:39:28 2020-Dec-18 02:39

Alternate Designations
 1993 UP8 = 1982 SE8 = 1987 QC10 = 1991 FD6 = 1996 EA6 
Ephemeris | Orbit Diagram | Orbital Elements | Mission Design | Physical Parameters | Discovery Circumstances | Close-Approach Data ]
ABOUT SSD CREDITS/AWARDS PRIVACY/COPYRIGHT GLOSSARY LINKS
FirstGov 2021-Jan-18 14:52 UT
(server date/time)  
NASA Home Page
Site Manager:   Ryan S. Park
Webmaster  Alan B. Chamberlin